Location: The Saddle
(36.8333°N, 80.3417°W)
Time: 20:16:23
(UTC-04:00)

ZACube-1 - Pass Details

Date: 29 March 2023
Orbit: 576 x 651 km, 97.7° (Epoch: 04 June)

Event Time Altitude Azimuth Distance (km) Brightness Sun altitude
Rises 05:23:46 0° 360° (N) 2,864 ? -21.8°
Reaches altitude 10° 05:26:09 10° 349° (N) 1,943 ? -21.4°
Enters shadow 05:28:36 25° 319° (NW) 1,213 ? -20.9°
